sat.trackr.live / text

‹ back to catalog

STARLINK-35606

NORAD 66171 · 2025-240AB

PAYLOAD ACTIVE UNKNOWN

§ Identity

Operator
Country
US
Launch date
2025-10-25
Launch site
AFWTR
Launch vehicle
Mass (kg)
RCS (m²)

Purposes: comms

External: N2YO · Heavens-Above · Gunter

§ Orbital elements

Epoch: 2026-05-25T04:37:51.477024Z

Period
93.85 min
Inclination
53.1594°
Eccentricity
0.0001105
Mean motion
15.34410837 rev/d
Perigee alt
461.9 km
Apogee alt
463.4 km
Semi-major
6,840.8 km
B*
1.1756e-3
RAAN
66.5844°
Arg perigee
88.6151°
Mean anomaly
271.4979°
Rev number
3,371

§ Raw data

STARLINK-356061 66171U 25240AB  26145.19295691  .00039566  00000+0  11756-2 0  99942 66171  53.1594  66.5844 0001105  88.6151 271.4979 15.34410837 33718

JSON: /api/v1/satellites/66171 · /tle

For live sub-satellite position, see the globe view (requires WebGL).

§ Visibility from observer

Set your observer location to see the next 7 days of passes ≥ 10°. The values pass through the URL so the page stays shareable.

No JS? Fill the form by hand. The geolocation button needs JavaScript.